Station Historical Data
Daily Summary for July 22, 2017 Units:  English    Metric   Both
« Previous Day
Next Day »
Daily Weekly Monthly Yearly Custom
  High: Low: Average:
Temperature: 77.1 °F 67.6 °F 72.8 °F
Dew Point: 66.6 °F 60.8 °F 64.1 °F
Humidity: 88% 60% 75%
Wind Speed: 7.0mph 0.0mph 1.3mph
Wind Gust: 12.0mph - -
Wind- - ENE
Pressure: 29.92 in 29.74 in -
Precipitation: 0.02 in    
Historical Graphs
 
 
Tabular Data for July 22, 2017
Time Temperature Dew Point Pressure Wind Wind Speed Wind Gust Humidity Rainfall Rate (Hourly)
00:00 70.9 °F 61.8 °F 29.91 in Calm   3.0 mph 73% 0.00 in
00:05 71.2 °F 61.3 °F 29.91 in Calm     71% 0.00 in
00:10 71.3 °F 61.0 °F 29.92 in Calm     70% 0.00 in
00:15 71.4 °F 61.1 °F 29.92 in Calm     70% 0.00 in
00:20 71.4 °F 61.1 °F 29.92 in Calm     70% 0.00 in
00:25 71.4 °F 61.1 °F 29.92 in Calm     70% 0.00 in
00:30 71.4 °F 61.1 °F 29.92 in Calm     70% 0.00 in
00:35 71.2 °F 60.9 °F 29.92 in Calm     70% 0.00 in
00:40 71.2 °F 60.9 °F 29.92 in Calm     70% 0.00 in
00:45 71.2 °F 60.9 °F 29.92 in Calm     70% 0.00 in
00:50 71.1 °F 60.8 °F 29.92 in Calm     70% 0.00 in
00:55 71.1 °F 61.2 °F 29.92 in Calm     71% 0.00 in
01:00 71.2 °F 61.3 °F 29.92 in Calm     71% 0.00 in
01:05 71.1 °F 61.6 °F 29.91 in Calm     72% 0.00 in
01:10 71.0 °F 61.5 °F 29.92 in Calm     72% 0.00 in
01:15 70.8 °F 61.7 °F 29.92 in Calm     73% 0.00 in
01:20 70.6 °F 61.9 °F 29.92 in Calm     74% 0.00 in
01:25 70.3 °F 61.6 °F 29.91 in Calm     74% 0.00 in
01:30 70.3 °F 61.6 °F 29.92 in Calm     74% 0.00 in
01:35 70.2 °F 61.5 °F 29.91 in Calm     74% 0.00 in
01:40 70.1 °F 61.8 °F 29.91 in Calm     75% 0.00 in
01:45 70.0 °F 62.1 °F 29.91 in Calm     76% 0.00 in
01:50 69.8 °F 61.9 °F 29.91 in Calm     76% 0.00 in
01:55 69.7 °F 61.8 °F 29.90 in Calm     76% 0.00 in
02:00 69.6 °F 61.7 °F 29.91 in Calm     76% 0.00 in
02:05 69.7 °F 61.8 °F 29.90 in Calm     76% 0.00 in
02:10 69.6 °F 61.7 °F 29.90 in Calm     76% 0.00 in
02:15 69.7 °F 62.2 °F 29.90 in Calm     77% 0.00 in
02:20 69.5 °F 62.0 °F 29.90 in Calm     77% 0.00 in
02:25 69.5 °F 61.6 °F 29.89 in Calm     76% 0.00 in
02:30 69.6 °F 61.7 °F 29.89 in Calm     76% 0.00 in
02:35 69.6 °F 62.1 °F 29.89 in Calm     77% 0.00 in
02:40 69.3 °F 62.1 °F 29.88 in Calm     78% 0.00 in
02:45 69.0 °F 61.9 °F 29.88 in Calm     78% 0.00 in
02:50 68.8 °F 62.0 °F 29.88 in Calm     79% 0.00 in
02:55 68.5 °F 62.1 °F 29.88 in Calm     80% 0.00 in
03:00 68.3 °F 61.9 °F 29.88 in Calm     80% 0.00 in
03:05 68.3 °F 61.9 °F 29.87 in Calm     80% 0.00 in
03:10 68.4 °F 62.0 °F 29.86 in Calm     80% 0.00 in
03:15 68.4 °F 62.0 °F 29.87 in Calm     80% 0.00 in
03:20 68.3 °F 61.9 °F 29.87 in Calm     80% 0.00 in
03:25 68.1 °F 62.0 °F 29.86 in Calm     81% 0.00 in
03:30 68.2 °F 62.1 °F 29.87 in Calm     81% 0.00 in
03:35 68.1 °F 62.0 °F 29.86 in Calm     81% 0.00 in
03:40 68.1 °F 62.4 °F 29.86 in Calm     82% 0.00 in
03:45 68.1 °F 62.4 °F 29.86 in Calm     82% 0.00 in
03:50 68.0 °F 62.6 °F 29.87 in Calm     83% 0.00 in
03:55 67.7 °F 62.7 °F 29.87 in Calm     84% 0.00 in
04:00 67.7 °F 62.7 °F 29.88 in Calm     84% 0.00 in
04:05 67.7 °F 62.7 °F 29.87 in Calm     84% 0.00 in
04:10 67.6 °F 62.6 °F 29.87 in Calm     84% 0.00 in
04:15 67.8 °F 62.8 °F 29.87 in Calm     84% 0.00 in
04:20 67.9 °F 62.9 °F 29.88 in Calm     84% 0.00 in
04:25 67.8 °F 62.8 °F 29.88 in Calm     84% 0.00 in
04:30 67.8 °F 62.8 °F 29.88 in Calm     84% 0.00 in
04:35 67.9 °F 62.9 °F 29.89 in Calm     84% 0.00 in
04:40 67.9 °F 62.9 °F 29.88 in Calm     84% 0.00 in
04:45 67.9 °F 62.9 °F 29.88 in Calm     84% 0.00 in
04:50 68.2 °F 63.5 °F 29.89 in Calm     85% 0.00 in
04:55 68.4 °F 63.7 °F 29.89 in Calm     85% 0.00 in
05:00 68.5 °F 63.8 °F 29.89 in Calm     85% 0.00 in
05:05 68.5 °F 63.8 °F 29.88 in Calm     85% 0.00 in
05:10 68.6 °F 64.2 °F 29.88 in Calm     86% 0.00 in
05:15 68.6 °F 64.2 °F 29.87 in Calm     86% 0.00 in
05:20 68.7 °F 64.3 °F 29.87 in Calm     86% 0.00 in
05:25 68.6 °F 64.2 °F 29.87 in Calm     86% 0.00 in
05:30 68.7 °F 64.3 °F 29.86 in Calm     86% 0.00 in
05:35 68.6 °F 64.2 °F 29.87 in Calm     86% 0.00 in
05:40 68.7 °F 64.3 °F 29.87 in Calm     86% 0.00 in
05:45 68.8 °F 64.4 °F 29.87 in Calm     86% 0.00 in
05:50 68.7 °F 64.3 °F 29.87 in Calm     86% 0.00 in
05:55 68.8 °F 64.4 °F 29.87 in Calm     86% 0.00 in
06:00 68.8 °F 64.4 °F 29.87 in Calm     86% 0.00 in
06:05 68.8 °F 64.4 °F 29.87 in Calm     86% 0.00 in
06:10 68.8 °F 64.4 °F 29.87 in Calm     86% 0.00 in
06:15 68.8 °F 64.4 °F 29.87 in Calm     86% 0.00 in
06:20 68.8 °F 64.4 °F 29.87 in Calm     86% 0.00 in
06:25 68.7 °F 64.7 °F 29.87 in Calm     87% 0.00 in
06:30 68.6 °F 64.6 °F 29.87 in Calm     87% 0.00 in
06:35 68.7 °F 64.7 °F 29.87 in Calm     87% 0.00 in
06:40 68.9 °F 64.5 °F 29.88 in Calm     86% 0.00 in
06:45 69.0 °F 64.6 °F 29.88 in Calm     86% 0.00 in
06:50 69.0 °F 64.6 °F 29.87 in Calm   3.0 mph 86% 0.00 in
06:55 69.1 °F 64.7 °F 29.88 in Calm   3.0 mph 86% 0.00 in
07:00 69.3 °F 64.9 °F 29.87 in Calm     86% 0.00 in
07:05 69.5 °F 64.8 °F 29.88 in Calm     85% 0.00 in
07:10 69.6 °F 64.9 °F 29.87 in Calm     85% 0.00 in
07:15 69.8 °F 64.7 °F 29.87 in Calm     84% 0.00 in
07:20 70.0 °F 64.9 °F 29.88 in Calm     84% 0.00 in
07:25 70.2 °F 65.1 °F 29.87 in Calm     84% 0.00 in
07:30 70.2 °F 64.8 °F 29.87 in Calm     83% 0.00 in
07:35 70.3 °F 64.9 °F 29.87 in Calm     83% 0.00 in
07:40 70.3 °F 64.5 °F 29.87 in Calm     82% 0.00 in
07:45 70.4 °F 64.6 °F 29.87 in Calm     82% 0.00 in
07:50 70.7 °F 64.9 °F 29.87 in Calm     82% 0.00 in
07:55 70.9 °F 64.8 °F 29.87 in Calm     81% 0.00 in
08:00 71.1 °F 65.0 °F 29.87 in Calm     81% 0.00 in
08:05 71.2 °F 64.7 °F 29.87 in Calm     80% 0.00 in
08:10 71.3 °F 64.8 °F 29.87 in Calm     80% 0.00 in
08:15 71.5 °F 65.0 °F 29.87 in Calm     80% 0.00 in
08:20 71.7 °F 65.2 °F 29.87 in Calm     80% 0.00 in
08:25 71.8 °F 64.9 °F 29.87 in Calm   2.0 mph 79% 0.00 in
08:30 72.1 °F 65.2 °F 29.87 in Calm   2.0 mph 79% 0.00 in
08:35 72.3 °F 65.4 °F 29.87 in Calm   2.0 mph 79% 0.00 in
08:40 72.6 °F 65.3 °F 29.87 in Calm   3.0 mph 78% 0.00 in
08:45 72.6 °F 65.0 °F 29.87 in SW 2.0 mph 4.0 mph 77% 0.00 in
08:50 72.8 °F 64.8 °F 29.88 in SW 1.0 mph 4.0 mph 76% 0.00 in
08:55 73.0 °F 65.0 °F 29.88 in Calm   2.0 mph 76% 0.00 in
09:00 73.1 °F 64.7 °F 29.88 in Calm     75% 0.00 in
09:05 73.1 °F 65.1 °F 29.88 in Calm     76% 0.00 in
09:10 72.9 °F 64.1 °F 29.88 in Calm     74% 0.00 in
09:15 73.0 °F 64.2 °F 29.88 in Calm     74% 0.00 in
09:20 73.0 °F 64.6 °F 29.88 in Calm     75% 0.00 in
09:25 73.0 °F 64.6 °F 29.88 in Calm     75% 0.00 in
09:30 73.0 °F 64.2 °F 29.88 in Calm     74% 0.00 in
09:35 73.1 °F 64.7 °F 29.88 in Calm     75% 0.00 in
09:40 73.3 °F 64.5 °F 29.88 in Calm     74% 0.00 in
09:45 73.4 °F 65.0 °F 29.88 in Calm     75% 0.00 in
09:50 73.5 °F 65.1 °F 29.87 in Calm     75% 0.00 in
09:55 73.6 °F 65.2 °F 29.88 in Calm     75% 0.00 in
10:00 73.5 °F 65.1 °F 29.87 in Calm     75% 0.00 in
10:05 73.4 °F 65.0 °F 29.87 in SSE 2.0 mph 3.0 mph 75% 0.00 in
10:10 73.3 °F 64.9 °F 29.86 in Calm   3.0 mph 75% 0.00 in
10:15 73.3 °F 64.9 °F 29.86 in Calm     75% 0.00 in
10:20 73.4 °F 64.6 °F 29.87 in Calm   3.0 mph 74% 0.00 in
10:25 73.7 °F 64.5 °F 29.87 in SW 2.0 mph 5.0 mph 73% 0.00 in
10:30 73.9 °F 64.7 °F 29.87 in Calm   3.0 mph 73% 0.00 in
10:35 74.0 °F 64.8 °F 29.86 in Calm   3.0 mph 73% 0.00 in
10:40 74.3 °F 65.1 °F 29.86 in SSW 1.0 mph 4.0 mph 73% 0.00 in
10:45 74.6 °F 65.0 °F 29.86 in Calm   3.0 mph 72% 0.00 in
10:50 74.7 °F 64.3 °F 29.86 in SW 1.0 mph 4.0 mph 70% 0.00 in
10:55 74.9 °F 65.3 °F 29.86 in SW 1.0 mph 4.0 mph 72% 0.00 in
11:00 74.7 °F 64.7 °F 29.86 in SW 1.0 mph 2.0 mph 71% 0.00 in
11:05 74.9 °F 64.9 °F 29.86 in Calm   3.0 mph 71% 0.00 in
11:10 75.1 °F 64.6 °F 29.85 in Calm   3.0 mph 70% 0.00 in
11:20 75.3 °F 64.8 °F 29.85 in Calm   3.0 mph 70% 0.00 in
11:25 75.5 °F 65.0 °F 29.84 in Calm     70% 0.00 in
11:30 75.6 °F 65.5 °F 29.85 in Calm     71% 0.00 in
11:35 75.6 °F 65.1 °F 29.84 in Calm     70% 0.00 in
11:40 75.9 °F 64.2 °F 29.85 in Calm     67% 0.00 in
11:45 76.2 °F 65.3 °F 29.85 in Calm     69% 0.00 in
11:50 75.9 °F 64.2 °F 29.85 in Calm     67% 0.00 in
11:55 75.9 °F 64.6 °F 29.85 in Calm     68% 0.00 in
12:00 75.9 °F 64.6 °F 29.84 in Calm     68% 0.00 in
12:05 75.8 °F 63.6 °F 29.85 in Calm     66% 0.00 in
12:10 76.0 °F 64.2 °F 29.85 in Calm     67% 0.00 in
12:15 75.9 °F 64.2 °F 29.84 in Calm     67% 0.00 in
12:20 75.9 °F 64.2 °F 29.85 in Calm     67% 0.00 in
12:25 76.2 °F 64.4 °F 29.85 in Calm     67% 0.00 in
12:30 76.0 °F 64.2 °F 29.85 in Calm     67% 0.00 in
12:35 76.3 °F 64.1 °F 29.84 in Calm     66% 0.00 in
12:40 76.4 °F 64.6 °F 29.84 in Calm   2.0 mph 67% 0.00 in
12:45 76.6 °F 64.8 °F 29.84 in ENE 1.0 mph 3.0 mph 67% 0.00 in
12:50 76.6 °F 64.0 °F 29.84 in ENE 1.0 mph 3.0 mph 65% 0.00 in
12:55 76.5 °F 64.3 °F 29.85 in Calm   4.0 mph 66% 0.00 in
13:00 76.4 °F 65.1 °F 29.85 in Calm     68% 0.00 in
13:05 76.4 °F 65.1 °F 29.85 in Calm     68% 0.00 in
13:10 76.6 °F 64.8 °F 29.84 in Calm   5.0 mph 67% 0.00 in
13:15 76.6 °F 64.0 °F 29.84 in ENE 2.0 mph 5.0 mph 65% 0.00 in
13:20 76.4 °F 64.2 °F 29.84 in ENE 2.0 mph 6.0 mph 66% 0.00 in
13:25 76.4 °F 65.1 °F 29.83 in NE 1.0 mph 4.0 mph 68% 0.00 in
13:30 76.4 °F 65.9 °F 29.83 in ENE 4.0 mph 5.0 mph 70% 0.00 in
13:35 76.4 °F 65.5 °F 29.83 in NE 2.0 mph 4.0 mph 69% 0.00 in
13:40 76.5 °F 65.6 °F 29.83 in ENE 3.0 mph 8.0 mph 69% 0.00 in
13:45 76.8 °F 66.3 °F 29.83 in ENE 3.0 mph 8.0 mph 70% 0.00 in
13:50 76.7 °F 65.3 °F 29.83 in NE 2.0 mph 7.0 mph 68% 0.00 in
13:55 76.5 °F 64.7 °F 29.83 in ENE 3.0 mph 7.0 mph 67% 0.00 in
14:00 76.5 °F 65.1 °F 29.83 in ENE 3.0 mph 7.0 mph 68% 0.00 in
14:05 76.1 °F 65.2 °F 29.83 in NE 3.0 mph 7.0 mph 69% 0.00 in
14:10 75.9 °F 65.0 °F 29.83 in NE 3.0 mph 8.0 mph 69% 0.00 in
14:15 75.6 °F 65.1 °F 29.82 in NE 3.0 mph 8.0 mph 70% 0.00 in
14:20 75.6 °F 65.1 °F 29.82 in ENE 3.0 mph 10.0 mph 70% 0.00 in
14:25 75.3 °F 64.8 °F 29.82 in ENE 2.0 mph 9.0 mph 70% 0.00 in
14:30 75.1 °F 65.1 °F 29.82 in NE 4.0 mph 9.0 mph 71% 0.00 in
14:35 75.2 °F 64.7 °F 29.82 in NE 7.0 mph 9.0 mph 70% 0.00 in
14:40 75.1 °F 64.2 °F 29.82 in NE 4.0 mph 9.0 mph 69% 0.00 in
14:45 75.3 °F 64.8 °F 29.81 in ENE 3.0 mph 10.0 mph 70% 0.00 in
14:50 75.3 °F 64.4 °F 29.81 in ENE 7.0 mph 11.0 mph 69% 0.00 in
14:55 75.5 °F 65.0 °F 29.81 in East 5.0 mph 11.0 mph 70% 0.00 in
15:00 75.5 °F 65.0 °F 29.81 in ENE 6.0 mph 11.0 mph 70% 0.00 in
15:05 75.7 °F 65.2 °F 29.80 in ENE 5.0 mph 12.0 mph 70% 0.00 in
15:10 75.7 °F 64.4 °F 29.80 in ENE 5.0 mph 12.0 mph 68% 0.00 in
15:15 75.9 °F 64.2 °F 29.80 in ENE 5.0 mph 10.0 mph 67% 0.00 in
15:20 76.2 °F 64.0 °F 29.79 in NE 2.0 mph 8.0 mph 66% 0.00 in
15:25 76.3 °F 64.5 °F 29.79 in NE 2.0 mph 10.0 mph 67% 0.00 in
15:30 76.7 °F 64.9 °F 29.79 in ENE 3.0 mph 10.0 mph 67% 0.00 in
15:35 76.7 °F 64.9 °F 29.79 in ENE 3.0 mph 10.0 mph 67% 0.00 in
15:40 76.6 °F 64.0 °F 29.78 in ENE 4.0 mph 8.0 mph 65% 0.00 in
15:45 76.5 °F 63.4 °F 29.77 in ENE 3.0 mph 8.0 mph 64% 0.00 in
15:50 76.7 °F 64.0 °F 29.77 in South 3.0 mph 7.0 mph 65% 0.00 in
15:55 76.9 °F 63.8 °F 29.77 in ENE 3.0 mph 8.0 mph 64% 0.00 in
16:00 76.8 °F 64.1 °F 29.77 in East 3.0 mph 8.0 mph 65% 0.00 in
16:05 76.8 °F 64.1 °F 29.78 in ENE 2.0 mph 6.0 mph 65% 0.00 in
16:10 76.9 °F 64.2 °F 29.78 in ENE 3.0 mph 6.0 mph 65% 0.00 in
16:15 76.9 °F 64.2 °F 29.78 in NE 1.0 mph 5.0 mph 65% 0.00 in
16:20 76.7 °F 63.6 °F 29.78 in East 2.0 mph 5.0 mph 64% 0.00 in
16:25 77.0 °F 63.9 °F 29.78 in ENE 3.0 mph 5.0 mph 64% 0.00 in
16:30 77.1 °F 64.0 °F 29.77 in ENE 3.0 mph 8.0 mph 64% 0.00 in
16:35 77.1 °F 64.0 °F 29.77 in ENE 4.0 mph 8.0 mph 64% 0.00 in
16:40 77.1 °F 64.0 °F 29.77 in ENE 4.0 mph 8.0 mph 64% 0.00 in
16:45 76.7 °F 63.6 °F 29.77 in ENE 3.0 mph 8.0 mph 64% 0.00 in
16:50 76.6 °F 64.0 °F 29.76 in ENE 4.0 mph 8.0 mph 65% 0.00 in
16:55 76.4 °F 63.8 °F 29.76 in NE 4.0 mph 10.0 mph 65% 0.00 in
17:00 76.3 °F 64.1 °F 29.77 in ENE 4.0 mph 10.0 mph 66% 0.00 in
17:05 76.1 °F 63.9 °F 29.77 in NE 4.0 mph 9.0 mph 66% 0.00 in
17:10 76.1 °F 63.5 °F 29.76 in ENE 4.0 mph 9.0 mph 65% 0.00 in
17:15 76.2 °F 63.6 °F 29.76 in ENE 5.0 mph 10.0 mph 65% 0.00 in
17:20 76.1 °F 63.9 °F 29.76 in NE 2.0 mph 7.0 mph 66% 0.00 in
17:25 76.0 °F 62.9 °F 29.76 in ENE 4.0 mph 10.0 mph 64% 0.00 in
17:30 76.0 °F 63.4 °F 29.76 in ENE 5.0 mph 10.0 mph 65% 0.00 in
17:35 76.0 °F 63.4 °F 29.76 in NE 3.0 mph 8.0 mph 65% 0.00 in
17:40 76.0 °F 62.9 °F 29.75 in ENE 3.0 mph 7.0 mph 64% 0.00 in
17:45 76.0 °F 62.9 °F 29.75 in NE 5.0 mph 5.0 mph 64% 0.00 in
17:50 76.0 °F 62.9 °F 29.75 in NE 3.0 mph 7.0 mph 64% 0.00 in
17:55 76.0 °F 62.9 °F 29.75 in ENE 3.0 mph 7.0 mph 64% 0.00 in
18:00 76.1 °F 63.0 °F 29.75 in ENE 3.0 mph 5.0 mph 64% 0.00 in
18:05 75.9 °F 62.8 °F 29.75 in ENE 2.0 mph 7.0 mph 64% 0.00 in
18:10 75.9 °F 62.8 °F 29.75 in ENE 3.0 mph 7.0 mph 64% 0.00 in
18:15 76.0 °F 63.4 °F 29.74 in NE 3.0 mph 5.0 mph 65% 0.00 in
18:20 76.0 °F 63.8 °F 29.74 in ESE 1.0 mph 5.0 mph 66% 0.00 in
18:25 75.9 °F 63.3 °F 29.74 in ENE 2.0 mph 8.0 mph 65% 0.00 in
18:30 75.8 °F 63.2 °F 29.74 in ENE 2.0 mph 5.0 mph 65% 0.00 in
18:35 75.7 °F 62.7 °F 29.74 in ENE 3.0 mph 8.0 mph 64% 0.00 in
18:40 75.7 °F 62.2 °F 29.74 in NE 2.0 mph 10.0 mph 63% 0.00 in
18:45 75.8 °F 62.3 °F 29.74 in ENE 4.0 mph 10.0 mph 63% 0.00 in
18:50 75.8 °F 61.4 °F 29.74 in East 3.0 mph 9.0 mph 61% 0.00 in
18:55 75.9 °F 61.0 °F 29.74 in NE 2.0 mph 9.0 mph 60% 0.00 in
19:00 75.9 °F 61.5 °F 29.75 in ENE 4.0 mph 9.0 mph 61% 0.00 in
19:05 75.8 °F 62.3 °F 29.74 in NE 3.0 mph 7.0 mph 63% 0.00 in
19:10 75.5 °F 62.5 °F 29.75 in NE 2.0 mph 7.0 mph 64% 0.00 in
19:15 75.5 °F 62.5 °F 29.75 in Calm   5.0 mph 64% 0.00 in
19:20 75.5 °F 62.9 °F 29.75 in ENE 1.0 mph 5.0 mph 65% 0.00 in
19:25 75.6 °F 63.4 °F 29.75 in NE 2.0 mph 5.0 mph 66% 0.00 in
19:30 75.4 °F 63.7 °F 29.75 in ENE 3.0 mph 7.0 mph 67% 0.00 in
19:40 75.2 °F 64.3 °F 29.75 in NE 3.0 mph 8.0 mph 69% 0.00 in
19:50 75.1 °F 64.6 °F 29.76 in ENE 4.0 mph 8.0 mph 70% 0.00 in
19:55 75.0 °F 65.0 °F 29.76 in NE 3.0 mph 8.0 mph 71% 0.00 in
20:05 74.8 °F 65.2 °F 29.77 in NE 2.0 mph 5.0 mph 72% 0.00 in
20:10 74.6 °F 65.4 °F 29.77 in NE 6.0 mph 6.0 mph 73% 0.00 in
20:15 74.5 °F 65.7 °F 29.77 in ENE 7.0 mph 8.0 mph 74% 0.00 in
20:20 74.4 °F 66.0 °F 29.77 in Calm   7.0 mph 75% 0.00 in
20:25 74.2 °F 65.8 °F 29.77 in NE 2.0 mph 4.0 mph 75% 0.00 in
20:30 73.9 °F 65.5 °F 29.77 in NE 2.0 mph 8.0 mph 75% 0.00 in
20:35 73.6 °F 65.6 °F 29.77 in NE 3.0 mph 10.0 mph 76% 0.00 in
20:40 73.4 °F 65.4 °F 29.76 in NE 4.0 mph 10.0 mph 76% 0.00 in
20:45 73.3 °F 65.3 °F 29.77 in NE 4.0 mph 9.0 mph 76% 0.00 in
20:50 73.2 °F 65.2 °F 29.77 in NE 4.0 mph 9.0 mph 76% 0.00 in
20:55 73.1 °F 65.5 °F 29.76 in NE 3.0 mph 5.0 mph 77% 0.00 in
21:00 73.1 °F 65.5 °F 29.76 in ENE 1.0 mph 6.0 mph 77% 0.00 in
21:05 73.1 °F 65.8 °F 29.76 in ENE 4.0 mph 7.0 mph 78% 0.00 in
21:10 73.1 °F 65.8 °F 29.76 in ENE 1.0 mph 5.0 mph 78% 0.00 in
21:15 73.0 °F 66.1 °F 29.77 in NE 2.0 mph 11.0 mph 79% 0.00 in
21:20 72.9 °F 66.0 °F 29.77 in NE 5.0 mph 8.0 mph 79% 0.00 in
21:25 72.8 °F 65.9 °F 29.77 in ENE 4.0 mph 9.0 mph 79% 0.00 in
21:30 72.7 °F 65.8 °F 29.77 in ENE 5.0 mph 9.0 mph 79% 0.00 in
21:35 72.6 °F 66.1 °F 29.77 in ENE 5.0 mph 10.0 mph 80% 0.00 in
21:40 72.5 °F 66.0 °F 29.77 in ENE 5.0 mph 10.0 mph 80% 0.00 in
21:45 72.4 °F 65.9 °F 29.77 in ENE 4.0 mph 9.0 mph 80% 0.00 in
21:50 72.4 °F 65.9 °F 29.77 in ENE 2.0 mph 8.0 mph 80% 0.00 in
21:55 72.4 °F 66.2 °F 29.77 in ENE 2.0 mph 5.0 mph 81% 0.00 in
22:00 72.3 °F 66.1 °F 29.77 in ENE 3.0 mph 6.0 mph 81% 0.00 in
22:05 72.3 °F 66.1 °F 29.77 in NE 1.0 mph 5.0 mph 81% 0.00 in
22:10 72.2 °F 66.0 °F 29.77 in ENE 2.0 mph 7.0 mph 81% 0.00 in
22:15 72.2 °F 66.0 °F 29.77 in Calm   5.0 mph 81% 0.00 in
22:20 72.1 °F 66.3 °F 29.77 in East 2.0 mph 6.0 mph 82% 0.00 in
22:25 72.1 °F 66.3 °F 29.77 in NE 3.0 mph 8.0 mph 82% 0.00 in
22:30 71.9 °F 66.1 °F 29.77 in ENE 4.0 mph 8.0 mph 82% 0.00 in
22:35 72.0 °F 66.2 °F 29.77 in ENE 3.0 mph 7.0 mph 82% 0.00 in
22:40 72.0 °F 66.2 °F 29.77 in ENE 2.0 mph 6.0 mph 82% 0.00 in
22:45 71.9 °F 66.1 °F 29.77 in ENE 1.0 mph 4.0 mph 82% 0.00 in
22:50 71.8 °F 66.0 °F 29.78 in Calm   2.0 mph 82% 0.00 in
22:55 71.7 °F 66.3 °F 29.78 in Calm     83% 0.00 in
23:00 71.6 °F 66.2 °F 29.77 in Calm     83% 0.00 in
23:05 71.5 °F 66.1 °F 29.77 in Calm     83% 0.00 in
23:10 71.5 °F 66.1 °F 29.77 in Calm     83% 0.00 in
23:15 71.5 °F 66.1 °F 29.78 in Calm     83% 0.00 in
23:20 71.5 °F 66.1 °F 29.78 in ENE 1.0 mph 3.0 mph 83% 0.00 in
23:25 71.4 °F 66.3 °F 29.78 in ENE 1.0 mph 2.0 mph 84% 0.00 in
23:30 71.3 °F 66.2 °F 29.78 in Calm   2.0 mph 84% 0.00 in
23:35 70.9 °F 66.2 °F 29.78 in ENE 1.0 mph 2.0 mph 85% 0.00 in
23:40 70.7 °F 66.3 °F 29.78 in Calm   2.0 mph 86% 0.01 in
23:45 70.6 °F 66.2 °F 29.78 in Calm   1.0 mph 86% 0.01 in
23:50 70.3 °F 66.2 °F 29.77 in Calm   2.0 mph 87% 0.01 in
23:55 70.3 °F 66.6 °F 29.77 in Calm   2.0 mph 88% 0.02 in
Buffalo, New York, USA
Compliments of Weather Underground - 2.5 mb